Wellsville, NY

10:51 AM EST on December 14, 2019 (GMT -0500)
Wellsville Municipal-Tarantine

Weather History for KELZ - November, 2019

Change the Weather History Date:

Sunday, November 17, 2019

  Actual Average (KDSV) Record (KDSV)
Temperature  
Mean Temperature 27 °F -  
Max Temperature 37 °F 45 °F 70 °F (1953)
Min Temperature 17 °F 28 °F 12 °F (1967)
Degree Days  
Heating Degree Days 38    
Moisture  
Dew Point 17 °F    
Average Humidity 68    
Maximum Humidity 92    
Minimum Humidity 44    
Precipitation  
Precipitation 0.00 in - - ()
Sea Level Pressure  
Sea Level Pressure 30.20 in    
Wind  
Wind Speed 7 mph ()    
Max Wind Speed 16 mph    
Max Gust Speed 28 mph    
Visibility 10.0 miles    
Events      
Averages and records for this station are not official NWS values.
T = Trace of Precipitation, MM = Missing Value Source: Averaged Metar Reports

Daily Weather History Graph

Daily Weather History Graph

Search for Another Location

Airport or City:

Astronomy

Nov. 17, 2019 Rise Set
Actual Time 7:04 AM EST 4:49 PM EST
Civil Twilight 6:34 AM EST 5:19 PM EST
Nautical Twilight 6:00 AM EST 5:53 PM EST
Astronomical Twilight 5:26 AM EST 6:26 PM EST
Moon 9:22 PM EST (11/17) 11:49 AM EST (11/17)
Length of Visible Light 10h 45m
Length of Day
9h 44m
Waning Gibbous, 73% of the Moon is Illuminated
Nov 17
Waning Gibbous
Nov 19
Last Quarter
Nov 26
New
Dec 4
First Quarter
Dec 12
Full

Hourly Weather History & Observations

Time (EST) Temp. Windchill Dew Point Humidity Pressure Visibility Wind Dir Wind Speed Gust Speed Precip Events Conditions
12:56 AM 18.0 °F 7.7 °F 8.1 °F 65% 30.38 in 10.0 mi SE 8.1 mph - N/A   Clear
1:56 AM 18.0 °F 9.8 °F 8.1 °F 65% 30.38 in 10.0 mi SE 5.8 mph - N/A   Clear
2:56 AM 17.1 °F 8.7 °F 8.1 °F 68% 30.37 in 10.0 mi ESE 5.8 mph - N/A   Clear
3:56 AM 17.1 °F 7.6 °F 7.0 °F 65% 30.36 in 10.0 mi ESE 6.9 mph - N/A   Clear
4:56 AM 18.0 °F 7.7 °F 3.9 °F 54% 30.35 in 10.0 mi SE 8.1 mph - N/A   Clear
5:56 AM 18.0 °F 9.8 °F 1.9 °F 50% 30.35 in 10.0 mi ESE 5.8 mph - N/A   Clear
6:56 AM 18.0 °F 9.8 °F 1.0 °F 48% 30.34 in 10.0 mi SE 5.8 mph - N/A   Clear
7:56 AM 19.9 °F 9.3 °F 1.0 °F 44% 30.32 in 10.0 mi SE 9.2 mph - N/A   Mostly Cloudy
8:56 AM 21.9 °F 11.0 °F 3.9 °F 46% 30.32 in 10.0 mi SSE 10.4 mph - N/A   Overcast
9:56 AM 26.1 °F 16.8 °F 8.1 °F 47% 30.31 in 10.0 mi SSE 9.2 mph - N/A   Overcast
10:56 AM 28.0 °F 18.1 °F 12.0 °F 51% 30.29 in 10.0 mi SSE 11.5 mph 16.1 mph N/A   Overcast
11:56 AM 32.0 °F 23.0 °F 18.0 °F 56% 30.24 in 10.0 mi SSE 11.5 mph - N/A   Overcast
12:56 PM 35.1 °F 25.2 °F 23.0 °F 61% 30.19 in 10.0 mi SSE 16.1 mph 27.6 mph N/A   Clear
1:56 PM 36.0 °F 27.5 °F 24.1 °F 62% 30.17 in 10.0 mi SSE 12.7 mph 23.0 mph N/A   Clear
2:56 PM 37.0 °F 29.8 °F 25.0 °F 62% 30.15 in 10.0 mi SSE 10.4 mph - N/A   Clear
4:56 PM 34.0 °F 24.2 °F 27.0 °F 75% 30.13 in 10.0 mi SSE 15.0 mph 20.7 mph N/A   Overcast
5:56 PM 32.0 °F 24.8 °F 27.0 °F 82% 30.13 in 10.0 mi SE 8.1 mph - N/A   Overcast
6:56 PM 32.0 °F 25.6 °F 28.0 °F 85% 30.12 in 10.0 mi South 6.9 mph - N/A   Overcast
7:56 PM 33.1 °F 25.5 °F 28.0 °F 82% 30.10 in 10.0 mi SSE 9.2 mph - N/A   Overcast
8:16 PM 32.0 °F 25.6 °F 28.0 °F 85% 30.01 in 10.0 mi SE 6.9 mph - N/A   Overcast
8:56 PM 32.0 °F 25.6 °F 28.0 °F 85% 30.07 in 10.0 mi SSE 6.9 mph - N/A   Overcast
9:30 PM 32.0 °F 24.8 °F 28.0 °F 85% 29.98 in 10.0 mi SSE 8.1 mph - N/A   Overcast
9:56 PM 32.0 °F 25.6 °F 28.0 °F 85% 30.04 in 10.0 mi SSE 6.9 mph - N/A   Overcast
11:16 PM 30.0 °F 21.7 °F 28.0 °F 92% 29.94 in 10.0 mi SSE 9.2 mph - N/A   Scattered Clouds
11:56 PM 30.0 °F 23.2 °F 28.0 °F 92% 29.99 in 10.0 mi SSE 6.9 mph - N/A   Partly Cloudy